Location: Unspecified
(43.4354°N, 0.0000°E)
Time: 18:30:46
(UTC+00:00)

Courier 1B Rocket - All Passes

Search period start: 16 June 2019 00:00
Search period end: 26 June 2019 00:00
Orbit: 920 x 1202 km, 28.2° (Epoch: 15 June)

Date Brightness Start Highest point End Pass type
(mag) Time Alt. Az. Time Alt. Az. Time Alt. Az.
16 Jun - 06:10:31 10° S 06:12:57 12° SSE 06:15:22 10° SE daylight
16 Jun - 08:01:00 10° SW 08:05:14 19° S 08:09:29 10° SE daylight
16 Jun - 09:53:41 10° SW 09:57:35 17° S 10:01:32 10° SSE daylight
17 Jun - 07:00:32 10° SSW 07:04:34 18° S 07:08:34 10° SE daylight
17 Jun - 08:52:44 10° SW 08:56:55 19° S 09:01:07 10° SE daylight
17 Jun - 10:47:13 10° SW 10:49:11 11° SSW 10:51:11 10° S daylight
18 Jun - 06:00:16 10° SSW 06:03:54 16° SSE 06:07:29 10° SE daylight
18 Jun - 07:51:54 10° SW 07:56:14 20° S 08:00:33 10° SE daylight
18 Jun - 09:45:22 10° SW 09:48:33 14° SSW 09:51:45 10° SSE daylight
19 Jun - 05:00:21 10° S 05:03:14 13° SSE 05:06:04 10° SE daylight
19 Jun - 06:51:11 10° SW 06:55:34 19° S 06:59:53 10° SE daylight
19 Jun - 08:44:04 10° SW 08:47:55 17° S 08:51:44 10° SSE daylight
20 Jun - 04:01:33 10° SSE 04:02:33 10° SSE 04:03:34 10° SSE daylight
20 Jun - 05:50:35 10° SW 05:54:53 18° S 05:59:04 10° SE daylight
20 Jun - 07:42:59 10° SW 07:47:15 19° S 07:51:27 10° SE daylight
20 Jun - 09:37:50 10° SW 09:39:30 11° SSW 09:41:08 10° S daylight
21 Jun - 04:50:09 10° SSW 04:54:10 17° SSE 04:58:05 10° SE daylight
21 Jun - 06:42:02 10° SW 06:46:35 20° S 06:50:59 10° SE daylight
21 Jun - 08:35:42 10° SW 08:38:52 14° SSW 08:42:00 10° SSE daylight
22 Jun - 03:50:01 10° SSW 03:53:28 14° SSE 03:56:49 10° SE daylight
22 Jun - 05:41:11 10° SW 05:45:52 20° S 05:50:23 10° SE daylight
22 Jun - 07:34:16 10° SW 07:38:14 17° SSW 07:42:07 10° SSE daylight
23 Jun - 02:50:31 10° S 02:52:44 12° SSE 02:54:55 10° SE visible
23 Jun - 04:40:27 10° SW 04:45:08 20° S 04:49:38 10° SE daylight
23 Jun - 06:33:03 10° SW 06:37:33 19° S 06:41:55 10° SE daylight
23 Jun - 08:28:08 10° SW 08:29:47 11° SSW 08:31:25 10° S daylight
24 Jun - 03:39:53 10° SSW 03:44:23 18° SSE 03:48:42 10° SE visible
24 Jun - 05:31:59 10° SW 05:36:51 21° S 05:41:30 10° SE daylight
24 Jun - 07:25:49 10° SW 07:29:10 15° SSW 07:32:27 10° SSE daylight
25 Jun - 02:39:35 10° SSW 02:43:37 16° SSE 02:47:29 10° SE visible
25 Jun - 04:31:01 10° SW 04:36:06 22° S 04:40:56 10° SE daylight
25 Jun - 06:24:16 10° SW 06:28:30 18° SSW 06:32:37 10° SSE daylight
